Los Angeles, CA

7:45 AM PST on February 07, 2016 (GMT -0800)
Los Angeles Downtown

Weather History for KCQT - January, 2013

Change the Weather History Date:

Wednesday, January 23, 2013

  Actual Average Record
Temperature  
Mean Temperature 66 °F 58 °F  
Max Temperature 78 °F 68 °F 84 °F (1968)
Min Temperature 54 °F 48 °F 33 °F (1937)
Degree Days  
Heating Degree Days 0 7  
Month to date heating degree days 204 167  
Since 1 July heating degree days 515 532  
Cooling Degree Days 1 0  
Month to date cooling degree days 2 0  
Year to date cooling degree days 2 0  
Growing Degree Days 16 (Base 50)    
Moisture  
Dew Point 31 °F    
Average Humidity 31    
Maximum Humidity 48    
Minimum Humidity 14    
Precipitation  
Precipitation 0.02 in 0.10 in 1.05 in (1995)
Month to date precipitation 0.17 2.33  
Year to date precipitation 0.17 2.33  
Since 1 July precipitation 3.39  
Sea Level Pressure  
Sea Level Pressure 30.05 in    
Wind  
Wind Speed 2 mph (ESE)    
Max Wind Speed 8 mph    
Max Gust Speed 12 mph    
Visibility 10 miles    
Events Rain    
T = Trace of Precipitation, MM = Missing Value Source: NWS Daily Summary

Daily Weather History Graph

Daily Weather History Graph

Search for Another Location

Airport or City:

Trip Planner

Search our weather history database for the weather conditions in past years. The results will help you decide how hot, cold, wet, or windy it might be!

Date:

Astronomy

Jan. 23, 2013 Rise Set
Actual Time 6:55 AM PST 5:14 PM PST
Civil Twilight 6:28 AM PST 5:41 PM PST
Nautical Twilight 5:58 AM PST 6:11 PM PST
Astronomical Twilight 5:28 AM PST 6:41 PM PST
Moon 2:31 PM PST (1/23) 4:08 AM PST (1/23)
Length of Visible Light 11h 13m
Length of Day
10h 19m
Waxing Gibbous, 90% of the Moon is Illuminated
Jan 23
Waxing Gibbous
Jan 26
Full
Feb 3
Last Quarter
Feb 9
New
Feb 17
First Quarter

Hourly Weather History & Observations

Time (PST) Temp. Dew Point Humidity Pressure Visibility Wind Dir Wind Speed Gust Speed Precip Events Conditions
12:47 AM 55.0 °F 33.1 °F 43% 30.04 in 10.0 mi Calm Calm - N/A   Clear
1:47 AM 55.0 °F 30.9 °F 40% 30.04 in 10.0 mi Calm Calm - N/A   Clear
2:47 AM 55.9 °F 28.0 °F 34% 30.04 in 10.0 mi Calm Calm - N/A   Clear
3:47 AM 55.9 °F 25.0 °F 30% 30.02 in 10.0 mi Calm Calm - N/A   Clear
4:47 AM 57.0 °F 24.1 °F 28% 30.01 in 10.0 mi Calm Calm - N/A   Clear
5:47 AM 57.9 °F 24.1 °F 27% 30.02 in 10.0 mi Calm Calm - N/A   Clear
6:47 AM 61.0 °F 21.0 °F 21% 30.03 in 10.0 mi NNE 4.6 mph - N/A   Clear
7:47 AM 62.1 °F 21.0 °F 21% 30.02 in 10.0 mi Calm Calm - N/A   Clear
8:47 AM 68.0 °F 21.0 °F 17% 30.03 in 10.0 mi East 3.5 mph - N/A   Clear
9:47 AM 72.0 °F 21.9 °F 15% 30.04 in 10.0 mi East 5.8 mph - N/A   Clear
10:47 AM 75.0 °F 23.0 °F 14% 30.04 in 10.0 mi East 4.6 mph - N/A   Clear
11:47 AM 77.0 °F 25.0 °F 15% 30.04 in 10.0 mi Calm Calm - N/A   Clear
12:47 PM 75.9 °F 27.0 °F 16% 30.02 in 10.0 mi South 4.6 mph - N/A   Clear
1:47 PM 73.9 °F 26.1 °F 17% 30.01 in 10.0 mi Variable 3.5 mph - N/A   Mostly Cloudy
2:47 PM 73.0 °F 26.1 °F 17% 30.02 in 10.0 mi Variable 3.5 mph - N/A   Partly Cloudy
3:47 PM 71.1 °F 26.1 °F 19% 30.02 in 10.0 mi Variable 3.5 mph - N/A   Clear
4:47 PM 70.0 °F 28.9 °F 22% 30.04 in 10.0 mi SE 3.5 mph - N/A   Partly Cloudy
5:47 PM 66.9 °F 35.1 °F 31% 30.06 in 10.0 mi South 4.6 mph - N/A   Mostly Cloudy
6:47 PM 64.9 °F 39.0 °F 39% 30.07 in 10.0 mi Calm Calm - N/A   Mostly Cloudy
7:47 PM 63.0 °F 43.0 °F 48% 30.07 in 10.0 mi Calm Calm - N/A   Overcast
8:47 PM 63.0 °F 43.0 °F 48% 30.07 in 10.0 mi Calm Calm - N/A   Overcast
9:47 PM 61.0 °F 46.9 °F 60% 30.10 in 10.0 mi Calm Calm - 0.00 in Rain Light Rain
10:47 PM 60.1 °F 48.9 °F 67% 30.14 in 10.0 mi Calm Calm - 0.00 in Rain Light Rain
11:47 PM 59.0 °F 51.1 °F 75% 30.14 in 9.0 mi East 4.6 mph - 0.02 in Rain Light Rain